#�ϑ�����,���ϕ���,���ϕ���,�ő啗��,�ő啗����������,�ő�u�ԕ���,�ő�u�ԕ�����������
#(�N����),(m/s)   ,(16����),(m/s)   ,(16����)        ,(m/s)       ,(16����)            
2013/2/19 0:01,6.3,16,6.3,16,9.2,2
2013/2/19 0:02,6.4,16,6.4,16,10.9,16
2013/2/19 0:03,6.6,16,6.6,16,11.6,16
2013/2/19 0:04,6.6,16,6.6,16,13.5,1
2013/2/19 0:05,6.7,16,6.7,16,17.8,16
2013/2/19 0:06,6.4,16,6.8,16,11.3,1
2013/2/19 0:07,6.3,16,6.5,16,11.4,1
2013/2/19 0:08,6.5,16,6.5,16,10,16
2013/2/19 0:09,6.7,16,6.7,16,10.1,1
2013/2/19 0:10,7,16,7,16,13.5,16
2013/2/19 0:11,7.2,16,7.2,16,14.9,16
2013/2/19 0:12,7.4,16,7.5,16,17.1,16
2013/2/19 0:13,7.6,16,7.7,16,15.3,2
2013/2/19 0:14,7.5,16,7.6,16,14.5,1
2013/2/19 0:15,7.4,16,7.5,16,16.6,16
2013/2/19 0:16,7.6,16,7.7,16,13,16
2013/2/19 0:17,7.6,16,7.6,16,11.6,2
2013/2/19 0:18,7.6,16,7.6,16,14.1,1
2013/2/19 0:19,7.9,16,8,16,15.7,16
2013/2/19 0:20,7.9,16,8,16,12.2,1
2013/2/19 0:21,7.5,16,7.9,16,6.1,1
2013/2/19 0:22,7.1,16,7.5,16,10.2,1
2013/2/19 0:23,7,16,7.1,16,15.3,15
2013/2/19 0:24,7.2,16,7.3,16,16.9,15
2013/2/19 0:25,7.1,16,7.4,16,15.9,15
2013/2/19 0:26,7,16,7.1,16,11.6,15
2013/2/19 0:27,7,16,7.1,16,10.8,16
2013/2/19 0:28,7.3,16,7.3,16,15.3,1
2013/2/19 0:29,7.3,16,7.4,16,14,16
2013/2/19 0:30,7.4,16,7.4,16,12.1,16
2013/2/19 0:31,7.6,16,7.6,16,8.4,1
2013/2/19 0:32,7.6,16,7.7,16,7.8,15
2013/2/19 0:33,7.4,16,7.6,16,8.5,1
2013/2/19 0:34,7.1,16,7.4,16,10.9,1
2013/2/19 0:35,6.8,16,7,16,14.3,16
2013/2/19 0:36,6.9,16,7.1,16,14.2,16
2013/2/19 0:37,7,16,7,16,13.2,1
2013/2/19 0:38,6.6,16,6.9,16,9.4,1
2013/2/19 0:39,6,16,6.5,16,8.6,1
2013/2/19 0:40,5.9,16,5.9,16,11.3,16
2013/2/19 0:41,5.9,16,5.9,16,10.3,16
2013/2/19 0:42,6,16,6,16,12.8,16
2013/2/19 0:43,6.3,16,6.3,16,12.6,16
2013/2/19 0:44,6.4,16,6.4,16,15.4,16
2013/2/19 0:45,6.8,16,6.8,16,14.7,16
2013/2/19 0:46,6.7,16,6.7,16,13.9,16
2013/2/19 0:47,6.8,16,6.9,16,15,15
2013/2/19 0:48,7.2,16,7.2,16,13.2,16
2013/2/19 0:49,7.4,16,7.4,16,11.7,1
2013/2/19 0:50,7.5,16,7.5,16,13.6,16
2013/2/19 0:51,7.5,16,7.6,16,10.8,16
2013/2/19 0:52,7.7,16,7.7,16,15.1,1
2013/2/19 0:53,7.4,16,7.7,16,11.5,16
2013/2/19 0:54,7.4,16,7.4,16,10.9,15
2013/2/19 0:55,7.2,16,7.4,16,11.3,1
2013/2/19 0:56,7,16,7.2,16,10.2,15
2013/2/19 0:57,6.8,16,7,16,12.1,16
2013/2/19 0:58,6.4,16,6.8,16,9.8,16
2013/2/19 0:59,6.3,16,6.3,16,9.8,16
2013/2/19 1:00,6.3,16,6.3,16,11.4,16
2013/2/19 1:01,6.3,16,6.3,16,11.6,1
2013/2/19 1:02,6.2,16,6.4,16,10.7,15
2013/2/19 1:03,6,16,6.1,16,10.2,16
2013/2/19 1:04,6,16,6,16,9.3,16
2013/2/19 1:05,5.8,16,6,16,11.6,15
2013/2/19 1:06,6.3,16,6.3,16,14.2,1
2013/2/19 1:07,6.4,16,6.4,16,12.7,16
2013/2/19 1:08,6.5,16,6.5,16,10.6,1
2013/2/19 1:09,6.8,16,6.8,16,12.4,15
2013/2/19 1:10,6.7,16,6.8,16,10.8,15
2013/2/19 1:11,6.7,16,6.7,16,9.7,14
2013/2/19 1:12,6.4,16,6.6,16,8.1,16
2013/2/19 1:13,6.4,16,6.4,16,8.9,15
2013/2/19 1:14,6.5,16,6.5,16,12.4,16
2013/2/19 1:15,6.6,16,6.8,16,10.5,15
2013/2/19 1:16,6.1,16,6.7,16,10.1,16
2013/2/19 1:17,6,16,6.1,16,9.8,3
2013/2/19 1:18,6.1,16,6.1,16,12.7,14
2013/2/19 1:19,5.9,16,6.1,16,10.1,15
2013/2/19 1:20,5.8,16,5.9,16,11.5,15
2013/2/19 1:21,6.2,16,6.2,16,15,16
2013/2/19 1:22,6.5,16,6.5,16,11.4,1
2013/2/19 1:23,6.5,16,6.6,16,8.4,1
2013/2/19 1:24,6.5,16,6.5,16,9.3,14
2013/2/19 1:25,6.3,16,6.5,16,11.8,15
2013/2/19 1:26,6.4,16,6.4,16,7.4,16
2013/2/19 1:27,6.4,16,6.4,16,11,16
2013/2/19 1:28,6.1,16,6.3,16,9.7,2
2013/2/19 1:29,6,16,6.1,16,10.5,1
2013/2/19 1:30,6.1,16,6.1,16,12.7,16
2013/2/19 1:31,5.7,16,6,16,11.7,1
2013/2/19 1:32,5.7,16,5.8,16,12.4,15
2013/2/19 1:33,5.7,16,5.8,16,9.3,2
2013/2/19 1:34,5.7,16,5.7,16,12.7,16
2013/2/19 1:35,6,16,6,16,15.2,15
2013/2/19 1:36,6.4,16,6.4,16,14.5,15
2013/2/19 1:37,6.5,16,6.5,16,11.9,16
2013/2/19 1:38,7,16,7,16,14.7,16
2013/2/19 1:39,7.2,16,7.2,16,11.3,16
2013/2/19 1:40,7.1,16,7.2,16,11.4,16
2013/2/19 1:41,7.3,16,7.4,16,12.6,1
2013/2/19 1:42,7.3,16,7.3,16,11.8,15
2013/2/19 1:43,7.6,16,7.6,16,13.4,15
2013/2/19 1:44,7.5,16,7.6,16,9.3,15
2013/2/19 1:45,7.2,16,7.5,16,11,1
2013/2/19 1:46,7,16,7.1,16,9.3,16
2013/2/19 1:47,6.6,16,6.9,16,9.1,16
2013/2/19 1:48,6.4,16,6.6,16,12.2,16
2013/2/19 1:49,6.3,16,6.4,16,11.7,16
2013/2/19 1:50,6.5,16,6.6,16,11.8,15
2013/2/19 1:51,6.6,16,6.6,16,13.5,16
2013/2/19 1:52,6.8,16,6.8,16,16,1
2013/2/19 1:53,6.8,16,6.8,16,12.8,16
2013/2/19 1:54,7.3,16,7.3,16,14.4,1
2013/2/19 1:55,7.4,16,7.4,16,11.7,16
2013/2/19 1:56,7.4,16,7.6,16,9.7,1
2013/2/19 1:57,7.7,16,7.7,16,11.6,15
2013/2/19 1:58,7.4,16,7.7,16,8.5,15
2013/2/19 1:59,7.3,16,7.4,16,10.3,15
2013/2/19 2:00,7.1,16,7.2,16,6.9,15
2013/2/19 2:01,6.8,16,7,16,11,16
2013/2/19 2:02,6.6,16,6.8,16,13.1,16
2013/2/19 2:03,6.3,16,6.6,16,8.2,2
2013/2/19 2:04,5.9,16,6.2,16,10.7,16
2013/2/19 2:05,5.8,16,5.8,16,13.5,15
2013/2/19 2:06,5.7,16,5.8,16,12.3,16
2013/2/19 2:07,5.6,16,5.7,16,12.8,16
2013/2/19 2:08,5.7,16,5.7,16,13.4,15
2013/2/19 2:09,5.9,16,5.9,16,13.1,16
2013/2/19 2:10,5.8,16,5.9,16,11.8,16
2013/2/19 2:11,5.4,16,5.8,16,5,16
2013/2/19 2:12,5.2,16,5.4,16,8.6,1
2013/2/19 2:13,5.3,16,5.3,16,10.3,16
2013/2/19 2:14,5.2,16,5.4,16,13.5,14
2013/2/19 2:15,5.3,16,5.4,16,13.6,16
2013/2/19 2:16,5.6,16,5.6,16,15,15
2013/2/19 2:17,5.8,16,5.8,16,13.8,16
2013/2/19 2:18,6.1,16,6.1,16,14.4,16
2013/2/19 2:19,6,16,6.2,16,14.1,16
2013/2/19 2:20,6.4,16,6.4,16,14.4,1
2013/2/19 2:21,6.9,16,6.9,16,16.3,16
2013/2/19 2:22,7.5,16,7.5,16,16,16
2013/2/19 2:23,7.6,16,7.6,16,10.9,1
2013/2/19 2:24,7.7,16,7.7,16,9.8,2
2013/2/19 2:25,7.6,16,7.8,16,12.4,16
2013/2/19 2:26,7.2,16,7.6,16,8.6,2
2013/2/19 2:27,7,16,7.2,16,9.3,15
2013/2/19 2:28,6.8,16,7,16,10.9,16
2013/2/19 2:29,6.7,16,6.8,16,10.8,16
2013/2/19 2:30,6.5,16,6.7,16,11.5,15
2013/2/19 2:31,6.4,16,6.5,16,11.4,16
2013/2/19 2:32,6,16,6.4,16,11.3,16
2013/2/19 2:33,5.8,16,6,16,10,14
2013/2/19 2:34,6,16,6,16,13.4,15
2013/2/19 2:35,5.9,16,6.1,16,10.8,1
2013/2/19 2:36,6,16,6,16,11.3,16
2013/2/19 2:37,6.3,16,6.3,16,11.5,16
2013/2/19 2:38,6.2,16,6.3,16,11.8,16
2013/2/19 2:39,6.3,16,6.4,16,12.1,1
2013/2/19 2:40,6.4,16,6.4,16,13.9,16
2013/2/19 2:41,6.3,16,6.4,16,11.1,16
2013/2/19 2:42,6.1,16,6.3,16,8.9,2
2013/2/19 2:43,6.1,16,6.2,16,7.5,16
2013/2/19 2:44,5.9,16,6.1,16,9.8,16
2013/2/19 2:45,5.7,16,5.9,16,8.9,2
2013/2/19 2:46,5.5,16,5.7,16,6.7,1
2013/2/19 2:47,5.3,16,5.5,16,11.4,1
2013/2/19 2:48,5.2,16,5.4,16,10.9,1
2013/2/19 2:49,5.1,16,5.2,16,7.6,1
2013/2/19 2:50,4.6,16,5.1,16,5.7,3
2013/2/19 2:51,4.5,16,4.6,16,11,1
2013/2/19 2:52,4.7,16,4.7,16,10.3,16
2013/2/19 2:53,4.7,16,4.8,16,11,15
2013/2/19 2:54,4.6,16,4.8,16,7.5,14
2013/2/19 2:55,4.7,16,4.7,16,10.2,1
2013/2/19 2:56,5,16,5,16,10.1,16
2013/2/19 2:57,4.9,16,5.1,16,7.8,15
2013/2/19 2:58,4.7,16,4.9,16,10.2,15
2013/2/19 2:59,4.9,16,4.9,16,10.3,16
2013/2/19 3:00,5.4,16,5.4,16,11.7,16
2013/2/19 3:01,5.4,16,5.4,16,9,16
2013/2/19 3:02,5.1,16,5.4,16,8.1,16
2013/2/19 3:03,4.8,16,5.1,16,4.4,15
2013/2/19 3:04,5,16,5,16,8.7,16
2013/2/19 3:05,4.8,16,4.9,16,9.2,16
2013/2/19 3:06,4.8,16,4.8,16,9.8,3
2013/2/19 3:07,5.2,16,5.2,16,11.6,16
2013/2/19 3:08,5.3,16,5.3,16,11.7,16
2013/2/19 3:09,5.5,16,5.5,16,10.7,16
2013/2/19 3:10,5.3,16,5.4,16,8.4,16
2013/2/19 3:11,5.3,16,5.4,16,8.9,16
2013/2/19 3:12,5.6,16,5.6,16,10.5,15
2013/2/19 3:13,5.8,16,5.8,16,8.2,16
2013/2/19 3:14,5.8,16,5.9,16,8.3,16
2013/2/19 3:15,5.8,16,5.9,16,8.2,1
2013/2/19 3:16,5.7,16,5.8,16,7.1,1
2013/2/19 3:17,5.6,16,5.8,16,14.5,16
2013/2/19 3:18,5.2,16,5.5,16,5.2,16
2013/2/19 3:19,4.9,16,5.1,16,6.7,14
2013/2/19 3:20,4.7,16,4.8,16,9,16
2013/2/19 3:21,4.6,16,4.8,16,8.7,16
2013/2/19 3:22,4.6,16,4.6,16,12.2,2
2013/2/19 3:23,4.8,16,4.8,16,11.4,1
2013/2/19 3:24,4.7,16,4.8,16,10.5,3
2013/2/19 3:25,4.9,16,4.9,16,13.4,1
2013/2/19 3:26,5.2,16,5.2,16,14,1
2013/2/19 3:27,5,16,5.2,16,9.3,15
2013/2/19 3:28,5.5,16,5.5,16,10.7,2
2013/2/19 3:29,6,1,6,1,13.5,1
2013/2/19 3:30,6.1,16,6.1,1,9.9,16
2013/2/19 3:31,6,16,6,1,6.4,15
2013/2/19 3:32,5.9,16,6.1,1,10.9,15
2013/2/19 3:33,5.8,16,5.9,1,10.5,1
2013/2/19 3:34,5.8,16,5.8,1,7.6,16
2013/2/19 3:35,5.9,16,6.1,1,9.9,16
2013/2/19 3:36,5.4,16,5.9,1,5.7,15
2013/2/19 3:37,5.4,16,5.4,1,5.5,1
2013/2/19 3:38,5.1,16,5.4,1,5,2
2013/2/19 3:39,4.4,16,5,1,6.1,16
2013/2/19 3:40,4.4,16,4.4,16,7.1,16
2013/2/19 3:41,4.3,16,4.4,16,5.6,15
2013/2/19 3:42,4.2,16,4.4,16,7.2,16
2013/2/19 3:43,3.9,16,4.2,16,5.4,1
2013/2/19 3:44,3.6,16,3.9,16,5.4,1
2013/2/19 3:45,3.4,16,3.6,16,6.2,2
2013/2/19 3:46,3.3,16,3.4,16,4.5,14
2013/2/19 3:47,3.2,16,3.4,16,5.1,14
2013/2/19 3:48,3.1,16,3.2,16,3.5,1
2013/2/19 3:49,3,16,3.1,16,5.4,1
2013/2/19 3:50,3.1,16,3.2,16,8.2,1
2013/2/19 3:51,3.1,16,3.1,16,6.1,16
2013/2/19 3:52,2.9,16,3.1,16,3.9,2
2013/2/19 3:53,3,16,3,16,5.6,16
2013/2/19 3:54,3.2,16,3.2,16,9.9,15
2013/2/19 3:55,3.3,16,3.3,16,8.9,15
2013/2/19 3:56,3.3,16,3.4,16,6.7,16
2013/2/19 3:57,3.2,16,3.2,16,4.9,16
2013/2/19 3:58,3.4,16,3.4,16,6.8,1
2013/2/19 3:59,3.4,16,3.5,16,4.7,2
2013/2/19 4:00,3,16,3.4,16,2.1,16
2013/2/19 4:01,2.8,16,3,16,2,14
2013/2/19 4:02,2.9,16,2.9,16,6.9,1
2013/2/19 4:03,2.9,16,3,16,7.5,1
2013/2/19 4:04,2.6,16,2.9,16,4.8,4
2013/2/19 4:05,2.3,16,2.5,16,4.7,14
2013/2/19 4:06,2.3,16,2.3,16,3.7,15
2013/2/19 4:07,2.2,16,2.3,16,2.7,16
2013/2/19 4:08,2,15,2.2,16,2.7,11
2013/2/19 4:09,2.2,15,2.2,16,11.5,16
2013/2/19 4:10,2.5,15,2.5,16,12.7,16
2013/2/19 4:11,2.8,16,2.8,16,6.1,2
2013/2/19 4:12,2.7,16,2.8,16,5,16
2013/2/19 4:13,2.6,16,2.7,1,4.5,15
2013/2/19 4:14,2.7,16,2.7,16,7.2,16
2013/2/19 4:15,2.8,16,2.8,16,5,16
2013/2/19 4:16,2.7,16,2.7,16,2.5,13
2013/2/19 4:17,2.8,16,2.8,16,7.5,1
2013/2/19 4:18,3.2,16,3.2,16,9,2
2013/2/19 4:19,3.2,16,3.2,16,9.7,16
2013/2/19 4:20,3.3,16,3.3,16,9,1
2013/2/19 4:21,3.3,16,3.4,16,9.7,1
2013/2/19 4:22,3.5,16,3.5,16,6.4,15
2013/2/19 4:23,3.9,16,3.9,16,11.9,14
2013/2/19 4:24,4.4,16,4.4,16,10.9,16
2013/2/19 4:25,4.6,16,4.6,16,8.3,16
2013/2/19 4:26,4.6,16,4.6,16,3.8,14
2013/2/19 4:27,4.8,16,4.9,16,9.2,15
2013/2/19 4:28,4.7,16,4.8,16,8.6,16
2013/2/19 4:29,4.7,16,4.7,16,6.8,16
2013/2/19 4:30,5,16,5,16,13.8,15
2013/2/19 4:31,5.2,16,5.2,16,13.3,15
2013/2/19 4:32,5.2,16,5.2,16,9.8,15
2013/2/19 4:33,4.8,16,5.2,16,4.9,1
2013/2/19 4:34,4.1,16,4.7,16,3,2
2013/2/19 4:35,3.8,16,4,16,3,16
2013/2/19 4:36,3.9,16,3.9,16,4.3,16
2013/2/19 4:37,3.6,16,3.9,16,3.7,16
2013/2/19 4:38,3.3,16,3.6,16,2.6,3
2013/2/19 4:39,3.3,16,3.4,16,7.8,15
2013/2/19 4:40,2.9,1,3.4,16,9.8,16
2013/2/19 4:41,2.7,1,2.9,16,6.5,1
2013/2/19 4:42,2.5,1,2.7,16,4.3,2
2013/2/19 4:43,2.6,1,2.6,16,4.9,15
2013/2/19 4:44,2.9,16,2.9,16,6.8,15
2013/2/19 4:45,3,1,3,16,5.2,1
2013/2/19 4:46,3,1,3,16,4.3,3
2013/2/19 4:47,3,1,3,16,3,2
2013/2/19 4:48,3,1,3,16,2.1,5
2013/2/19 4:49,2.7,1,2.9,16,1.1,16
2013/2/19 4:50,2.4,1,2.6,16,3.6,1
2013/2/19 4:51,2.1,1,2.3,16,1.9,15
2013/2/19 4:52,2,16,2.1,16,3.2,15
2013/2/19 4:53,2,16,2,16,3.8,16
2013/2/19 4:54,1.7,1,1.9,16,2.9,2
2013/2/19 4:55,1.6,1,1.7,1,3.8,3
2013/2/19 4:56,1.6,16,1.6,1,6.1,1
2013/2/19 4:57,2.1,16,2.1,1,9.1,2
2013/2/19 4:58,2.4,16,2.4,1,6.1,2
2013/2/19 4:59,2.5,1,2.5,1,3.5,15
2013/2/19 5:00,2.7,16,2.7,1,6.7,1
2013/2/19 5:01,3,1,3,1,6.2,16
2013/2/19 5:02,3.2,1,3.2,1,6,1
2013/2/19 5:03,3.2,1,3.2,1,5.5,2
2013/2/19 5:04,3.6,1,3.6,1,9.1,2
2013/2/19 5:05,4,1,4,1,7.1,2
2013/2/19 5:06,3.9,1,4,1,4.2,16
2013/2/19 5:07,3.4,1,3.8,1,2.6,14
2013/2/19 5:08,3.1,1,3.4,1,1.9,14
2013/2/19 5:09,3.2,1,3.2,1,6.1,1
2013/2/19 5:10,3.3,1,3.3,1,6.5,1
2013/2/19 5:11,3.4,1,3.4,1,8.3,1
2013/2/19 5:12,3.5,1,3.5,1,5.4,16
2013/2/19 5:13,3.4,16,3.5,1,4.4,16
2013/2/19 5:14,3.2,16,3.4,1,6,1
2013/2/19 5:15,3,16,3.1,1,7.4,3
2013/2/19 5:16,3.2,16,3.2,1,11.5,2
2013/2/19 5:17,3.5,1,3.5,1,7.6,16
2013/2/19 5:18,4.1,1,4.1,1,12.4,1
2013/2/19 5:19,4.1,16,4.2,16,5.7,16
2013/2/19 5:20,4.1,16,4.1,16,6.2,1
2013/2/19 5:21,4.1,16,4.1,16,10.2,16
2013/2/19 5:22,4,16,4.1,16,5.8,16
2013/2/19 5:23,4.3,16,4.3,16,7.1,2
2013/2/19 5:24,4.3,16,4.3,16,9.2,15
2013/2/19 5:25,4.5,16,4.5,16,8.6,15
2013/2/19 5:26,5,16,5,16,13.6,1
2013/2/19 5:27,5,16,5,16,5.8,2
2013/2/19 5:28,4.6,16,4.9,16,7,1
2013/2/19 5:29,4.5,16,4.6,16,5.8,16
2013/2/19 5:30,4.5,16,4.5,16,6.2,15
2013/2/19 5:31,4.3,16,4.5,16,9.2,16
2013/2/19 5:32,4.5,16,4.5,16,6.9,15
2013/2/19 5:33,4.6,16,4.6,16,11.8,1
2013/2/19 5:34,5.2,1,5.2,1,13,2
2013/2/19 5:35,5.3,1,5.3,1,11.8,1
2013/2/19 5:36,4.7,1,5.3,1,5.6,1
2013/2/19 5:37,4.6,1,4.7,1,5.4,15
2013/2/19 5:38,4.6,1,4.6,1,5.5,14
2013/2/19 5:39,4.6,1,4.7,1,5.7,1
2013/2/19 5:40,4.6,1,4.6,1,3.7,1
2013/2/19 5:41,4.3,1,4.5,1,5.8,16
2013/2/19 5:42,4.5,1,4.5,1,9,1
2013/2/19 5:43,4.4,1,4.5,1,9.3,2
2013/2/19 5:44,3.9,1,4.4,1,10,3
2013/2/19 5:45,3.5,1,3.9,1,5.4,1
2013/2/19 5:46,3.4,1,3.5,1,4.4,2
2013/2/19 5:47,3.7,1,3.7,1,11.3,2
2013/2/19 5:48,3.6,2,3.7,1,6,2
2013/2/19 5:49,3.5,2,3.6,1,4.1,1
2013/2/19 5:50,3.7,2,3.7,1,5.8,1
2013/2/19 5:51,3.6,2,3.7,1,3.3,16
2013/2/19 5:52,3.1,2,3.6,1,1.8,10
2013/2/19 5:53,2.7,2,3.1,1,3.1,13
2013/2/19 5:54,2.5,2,2.6,1,4.9,14
2013/2/19 5:55,2.6,3,2.6,1,5.8,5
2013/2/19 5:56,2.8,2,2.8,1,9.3,2
2013/2/19 5:57,2.6,2,2.8,1,7,16
2013/2/19 5:58,2.4,2,2.6,2,2.9,2
2013/2/19 5:59,2.4,2,2.4,2,2.2,2
2013/2/19 6:00,2.3,2,2.3,2,4.2,16
2013/2/19 6:01,2.3,2,2.3,2,5.4,2
2013/2/19 6:02,2.6,2,2.6,2,5.8,3
2013/2/19 6:03,2.9,2,2.9,2,7.6,5
2013/2/19 6:04,2.8,3,2.9,2,3.8,1
2013/2/19 6:05,2.7,3,2.8,2,3.5,7
2013/2/19 6:06,2.4,4,2.7,2,3.7,6
2013/2/19 6:07,2.2,4,2.4,2,2,2
2013/2/19 6:08,2.5,4,2.5,2,6.2,16
2013/2/19 6:09,2.4,3,2.5,2,3.6,15
2013/2/19 6:10,2.3,4,2.4,2,2.5,10
2013/2/19 6:11,2.5,3,2.5,2,7.9,15
2013/2/19 6:12,2.3,1,2.5,2,5.2,14
2013/2/19 6:13,2.2,16,2.3,2,7.1,1
2013/2/19 6:14,2.2,1,2.2,3,7.6,2
2013/2/19 6:15,2.3,16,2.3,3,4.3,16
2013/2/19 6:16,2.4,16,2.4,4,5.8,2
2013/2/19 6:17,2.9,16,2.9,16,14.7,16
2013/2/19 6:18,3.1,16,3.1,16,9.9,2
2013/2/19 6:19,3.2,1,3.2,1,4.4,2
2013/2/19 6:20,3.2,1,3.2,1,2.5,1
2013/2/19 6:21,3,2,3.1,1,3.7,6
2013/2/19 6:22,3.1,2,3.1,1,6.8,1
2013/2/19 6:23,3,2,3.2,1,6.3,1
2013/2/19 6:24,2.9,2,3,1,3.8,16
2013/2/19 6:25,3,2,3,1,6.7,2
2013/2/19 6:26,3.2,2,3.3,2,11.3,16
2013/2/19 6:27,3,2,3.3,2,6.2,2
2013/2/19 6:28,2.7,2,3,2,4.5,16
2013/2/19 6:29,2.8,2,2.8,2,8.4,16
2013/2/19 6:30,3.3,1,3.3,2,10.9,15
2013/2/19 6:31,4,1,4,1,14.5,1
2013/2/19 6:32,4,1,4.1,1,10.8,16
2013/2/19 6:33,4.3,1,4.3,1,7.2,2
2013/2/19 6:34,4.5,1,4.5,1,6.9,16
2013/2/19 6:35,4.7,16,4.7,16,8.4,15
2013/2/19 6:36,4.7,1,4.8,1,8.5,1
2013/2/19 6:37,4.8,16,4.8,1,10.9,1
2013/2/19 6:38,4.9,16,4.9,16,7.7,1
2013/2/19 6:39,5.2,16,5.2,16,15.1,16
2013/2/19 6:40,5.3,16,5.4,16,12.6,16
2013/2/19 6:41,4.9,16,5.3,16,10.5,15
2013/2/19 6:42,5.2,16,5.2,16,12.2,16
2013/2/19 6:43,5.1,16,5.3,16,6.8,16
2013/2/19 6:44,5,16,5.1,16,9.7,15
2013/2/19 6:45,5.1,16,5.1,16,9.7,16
2013/2/19 6:46,5,16,5.1,16,11.3,1
2013/2/19 6:47,5.2,16,5.2,16,11.4,16
2013/2/19 6:48,5.2,16,5.2,16,7.8,1
2013/2/19 6:49,5.1,16,5.3,16,11.4,16
2013/2/19 6:50,5.1,16,5.2,16,11.9,1
2013/2/19 6:51,5.1,16,5.1,16,6.9,16
2013/2/19 6:52,4.9,16,5.2,16,9.7,1
2013/2/19 6:53,5.1,16,5.1,16,11,15
2013/2/19 6:54,5.4,16,5.4,16,10.3,1
2013/2/19 6:55,5.3,16,5.4,16,10.8,16
2013/2/19 6:56,5.5,16,5.6,16,10.6,1
2013/2/19 6:57,5.4,16,5.6,16,11.5,16
2013/2/19 6:58,5.8,16,5.8,16,12.6,16
2013/2/19 6:59,5.6,16,5.8,16,9,1
2013/2/19 7:00,5.6,16,5.6,16,12.4,14
2013/2/19 7:01,6,16,6,16,11.7,1
2013/2/19 7:02,6.1,16,6.1,16,9,15
2013/2/19 7:03,6.2,16,6.3,16,10.1,14
2013/2/19 7:04,6.1,16,6.2,16,13,16
2013/2/19 7:05,6.1,16,6.2,16,9.2,15
2013/2/19 7:06,6.1,16,6.1,16,10.9,16
2013/2/19 7:07,6.3,16,6.3,16,11.1,16
2013/2/19 7:08,6.1,16,6.3,16,10.1,15
2013/2/19 7:09,6.1,16,6.2,16,10.1,15
2013/2/19 7:10,6,16,6.1,16,8.3,15
2013/2/19 7:11,5.6,16,6,16,10.2,16
2013/2/19 7:12,5.5,16,5.5,16,10.2,15
2013/2/19 7:13,5.3,16,5.4,16,9,1
2013/2/19 7:14,5.2,16,5.2,16,7.7,15
2013/2/19 7:15,4.9,16,5.1,16,7.9,15
2013/2/19 7:16,4.7,16,5,16,7.4,1
2013/2/19 7:17,4.2,16,4.6,16,5.8,14
2013/2/19 7:18,4.2,16,4.2,16,9.8,15
2013/2/19 7:19,4,16,4.1,16,4.3,14
2013/2/19 7:20,3.9,16,4,16,9.9,16
2013/2/19 7:21,3.8,16,3.8,16,8.9,1
2013/2/19 7:22,4.1,16,4.1,16,12.6,15
2013/2/19 7:23,4.4,16,4.5,16,15,16
2013/2/19 7:24,4.4,16,4.5,16,7.7,16
2013/2/19 7:25,4.2,16,4.4,16,3.5,1
2013/2/19 7:26,4.1,15,4.2,16,5.6,14
2013/2/19 7:27,4.1,16,4.2,16,5.7,16
2013/2/19 7:28,3.9,16,4.2,16,4.1,15
2013/2/19 7:29,4.2,16,4.2,16,11.1,16
2013/2/19 7:30,4.2,15,4.3,16,11.4,16
2013/2/19 7:31,4.5,15,4.5,16,9.8,15
2013/2/19 7:32,4.4,15,4.6,15,11.5,16
2013/2/19 7:33,4.2,16,4.3,15,9.8,1
2013/2/19 7:34,4.6,16,4.6,15,11.8,15
2013/2/19 7:35,5,16,5,16,10.6,1
2013/2/19 7:36,5.6,16,5.6,16,12.8,1
2013/2/19 7:37,5.8,16,5.8,16,8.1,1
2013/2/19 7:38,6.2,16,6.2,16,10.8,16
2013/2/19 7:39,6.1,16,6.2,16,8.9,15
2013/2/19 7:40,6,16,6.1,16,7.2,16
2013/2/19 7:41,5.8,16,6,16,12.2,16
2013/2/19 7:42,6.2,16,6.2,16,13.8,16
2013/2/19 7:43,6.5,16,6.5,16,14.3,16
2013/2/19 7:44,6.2,16,6.5,16,9.9,16
2013/2/19 7:45,6.2,16,6.3,16,9.4,15
2013/2/19 7:46,5.9,16,6.1,16,11.4,15
2013/2/19 7:47,6,16,6,16,8.7,1
2013/2/19 7:48,5.9,16,6,16,10,15
2013/2/19 7:49,6.3,16,6.3,16,13.1,1
2013/2/19 7:50,6.4,16,6.4,16,9.7,16
2013/2/19 7:51,6.3,16,6.5,16,6.5,16
2013/2/19 7:52,6,16,6.3,16,10.6,16
2013/2/19 7:53,5.6,16,5.9,16,7.8,2
2013/2/19 7:54,5.8,16,5.8,16,13.4,16
2013/2/19 7:55,5.9,16,5.9,16,11.6,16
2013/2/19 7:56,5.9,16,5.9,16,11.9,16
2013/2/19 7:57,6,16,6,16,9.4,16
2013/2/19 7:58,6,16,6.1,16,10.5,16
2013/2/19 7:59,5.5,16,6,16,6.8,1
2013/2/19 8:00,5.4,16,5.4,16,6.3,16
2013/2/19 8:01,5.2,16,5.4,16,4.2,16
2013/2/19 8:02,4.8,16,5.2,16,4.3,1
2013/2/19 8:03,4.6,16,4.8,16,4.3,16
2013/2/19 8:04,4.2,16,4.6,16,4.3,16
2013/2/19 8:05,3.8,16,4.2,16,5.4,15
2013/2/19 8:06,3.5,16,3.8,16,6.9,16
2013/2/19 8:07,3.4,16,3.5,16,7.2,16
2013/2/19 8:08,3.2,16,3.3,16,6.1,16
2013/2/19 8:09,3.1,1,3.2,16,4.3,1
2013/2/19 8:10,2.9,1,3.1,16,2.9,4
2013/2/19 8:11,2.7,1,2.9,16,2.5,4
2013/2/19 8:12,2.6,1,2.7,16,0.8,16
2013/2/19 8:13,2.3,1,2.5,16,0.6,1
2013/2/19 8:14,2,1,2.3,16,0.6,11
2013/2/19 8:15,1.9,1,2,16,1.6,12
2013/2/19 8:16,1.8,16,1.9,16,1.6,12
2013/2/19 8:17,1.5,16,1.7,16,2.1,12
2013/2/19 8:18,1.2,15,1.5,16,2,12
2013/2/19 8:19,1.1,14,1.2,1,2.4,14
2013/2/19 8:20,1.1,14,1.1,1,2.6,13
2013/2/19 8:21,1.2,13,1.2,1,2.2,13
2013/2/19 8:22,1.2,13,1.2,1,1.5,12
2013/2/19 8:23,1.3,13,1.3,1,1.1,1
2013/2/19 8:24,1.4,13,1.4,1,1.3,2
2013/2/19 8:25,1.3,13,1.4,1,0.9,16
2013/2/19 8:26,1.2,13,1.3,16,1.8,10
2013/2/19 8:27,1.2,13,1.2,16,2.6,8
2013/2/19 8:28,1.3,13,1.3,13,2.9,8
2013/2/19 8:29,1.3,12,1.3,13,2.5,8
2013/2/19 8:30,1.3,11,1.3,13,2.7,8
2013/2/19 8:31,1.3,10,1.4,13,3.1,8
2013/2/19 8:32,1.5,10,1.5,10,4.3,1
2013/2/19 8:33,1.6,9,1.6,9,2.7,15
2013/2/19 8:34,1.7,10,1.7,10,3.2,16
2013/2/19 8:35,1.8,10,1.8,10,2.7,16
2013/2/19 8:36,1.8,9,1.8,10,1.9,9
2013/2/19 8:37,1.6,7,1.8,10,1,3
2013/2/19 8:38,1.5,12,1.6,10,0.9,5
2013/2/19 8:39,1.4,13,1.5,10,1.5,10
2013/2/19 8:40,1.3,13,1.4,10,2.5,9
2013/2/19 8:41,1.3,12,1.3,10,2,10
2013/2/19 8:42,1.2,10,1.3,10,2.7,8
2013/2/19 8:43,1.1,10,1.2,10,2.1,9
2013/2/19 8:44,1,9,1.1,10,2.2,9
2013/2/19 8:45,1.1,9,1.1,10,3.1,9
2013/2/19 8:46,1.1,9,1.1,9,2.5,10
2013/2/19 8:47,1.2,9,1.2,6,1.9,9
2013/2/19 8:48,1.2,9,1.2,12,2,9
2013/2/19 8:49,1.3,9,1.3,13,2.4,10
2013/2/19 8:50,1.2,9,1.3,13,2.4,9
2013/2/19 8:51,1.2,9,1.2,12,2.5,10
2013/2/19 8:52,1.1,9,1.2,9,2.2,9
2013/2/19 8:53,1.1,9,1.1,9,2.2,9
2013/2/19 8:54,1.2,9,1.2,9,2.6,9
2013/2/19 8:55,1.2,9,1.2,9,3.1,8
2013/2/19 8:56,1.3,9,1.3,9,2.9,8
2013/2/19 8:57,1.4,9,1.4,9,3.2,8
2013/2/19 8:58,1.5,9,1.5,9,3.9,8
2013/2/19 8:59,1.7,9,1.7,9,4.3,9
2013/2/19 9:00,1.9,9,1.9,9,4.3,9
2013/2/19 9:01,2,9,2,9,3.6,8
2013/2/19 9:02,2.1,9,2.1,9,3.3,10
2013/2/19 9:03,2.2,9,2.2,9,3,9
2013/2/19 9:04,2.2,9,2.2,9,3.5,8
2013/2/19 9:05,2.1,9,2.2,9,2.7,9
2013/2/19 9:06,2,9,2.1,9,2.6,8
2013/2/19 9:07,2,9,2,9,2.7,9
2013/2/19 9:08,1.9,9,2,9,2.9,8
2013/2/19 9:09,1.8,9,1.9,9,3.8,9
2013/2/19 9:10,1.8,9,1.8,9,3.9,9
2013/2/19 9:11,1.7,9,1.8,9,3.5,9
2013/2/19 9:12,1.7,9,1.7,9,2.7,9
2013/2/19 9:13,1.7,9,1.7,9,2.5,9
2013/2/19 9:14,1.6,9,1.7,9,2.4,9
2013/2/19 9:15,1.7,9,1.7,9,2.9,9
2013/2/19 9:16,1.8,9,1.8,9,4.1,9
2013/2/19 9:17,1.7,9,1.8,9,2.7,10
2013/2/19 9:18,1.6,9,1.7,9,1.8,9
2013/2/19 9:19,1.6,9,1.7,9,2.9,9
2013/2/19 9:20,1.5,9,1.6,9,1.8,8
2013/2/19 9:21,1.4,9,1.4,9,2.2,8
2013/2/19 9:22,1.4,9,1.4,9,3.1,8
2013/2/19 9:23,1.4,9,1.4,9,2.4,9
2013/2/19 9:24,1.4,9,1.5,9,3.2,8
2013/2/19 9:25,1.4,9,1.5,9,3.3,9
2013/2/19 9:26,1.4,9,1.4,9,2.7,9
2013/2/19 9:27,1.4,9,1.4,9,2.2,8
2013/2/19 9:28,1.4,10,1.4,9,1.6,11
2013/2/19 9:29,1.3,10,1.4,9,1,10
2013/2/19 9:30,1.2,9,1.3,9,0.4,3
2013/2/19 9:31,1.1,9,1.2,9,0.9,8
2013/2/19 9:32,1,9,1.1,9,0.8,7
2013/2/19 9:33,0.9,9,1,9,1.8,8
2013/2/19 9:34,0.9,9,0.9,9,1.8,8
2013/2/19 9:35,0.9,9,1,9,2.6,8
2013/2/19 9:36,0.9,9,0.9,9,2.4,9
2013/2/19 9:37,0.9,8,0.9,9,2.2,9
2013/2/19 9:38,1,8,1,10,3.2,10
2013/2/19 9:39,1.2,9,1.2,10,3.7,10
2013/2/19 9:40,1.4,9,1.4,9,4.8,9
2013/2/19 9:41,1.7,9,1.7,9,5,11
2013/2/19 9:42,2,10,2,10,4.2,10
2013/2/19 9:43,2.1,10,2.1,10,3.2,10
2013/2/19 9:44,2.2,10,2.2,10,3.2,11
2013/2/19 9:45,2.4,10,2.4,10,3.8,11
2013/2/19 9:46,2.6,10,2.6,10,4.5,10
2013/2/19 9:47,2.7,10,2.7,10,4.2,12
2013/2/19 9:48,2.9,10,2.9,10,4.3,10
2013/2/19 9:49,2.9,10,2.9,10,4.2,10
2013/2/19 9:50,3,10,3,10,4.5,10
2013/2/19 9:51,2.9,10,3,10,4.2,10
2013/2/19 9:52,3,10,3,10,4.5,9
2013/2/19 9:53,3,10,3,10,4.2,10
2013/2/19 9:54,2.9,10,3,10,3.2,9
2013/2/19 9:55,2.8,10,2.9,10,3.1,11
2013/2/19 9:56,2.7,10,2.8,10,3.3,10
2013/2/19 9:57,2.6,10,2.7,10,3.2,10
2013/2/19 9:58,2.6,10,2.6,10,5,10
2013/2/19 9:59,2.7,10,2.7,10,5.2,10
2013/2/19 10:00,2.8,10,2.8,10,5.4,10
2013/2/19 10:01,2.9,10,2.9,10,5.7,10
2013/2/19 10:02,3,10,3,10,4.4,10
2013/2/19 10:03,3,11,3,10,3.3,11
2013/2/19 10:04,2.9,11,3,10,2.9,11
2013/2/19 10:05,2.7,11,2.8,10,1.1,9
2013/2/19 10:06,2.6,11,2.7,10,3.7,8
2013/2/19 10:07,2.7,11,2.7,10,4.4,13
2013/2/19 10:08,2.6,11,2.7,10,3,13
2013/2/19 10:09,2.3,11,2.6,10,3.1,11
2013/2/19 10:10,2.2,11,2.3,10,4.4,10
2013/2/19 10:11,2,11,2.2,10,4.3,10
2013/2/19 10:12,1.8,11,2,11,3.5,9
2013/2/19 10:13,1.8,11,1.8,11,3.7,10
2013/2/19 10:14,1.9,10,1.9,11,3.3,8
2013/2/19 10:15,2,10,2,11,3.7,10
2013/2/19 10:16,2,10,2.1,11,2.9,9
2013/2/19 10:17,1.9,10,2,11,3.2,9
2013/2/19 10:18,1.9,9,1.9,11,2.4,9
2013/2/19 10:19,1.8,9,1.9,11,2.1,11
2013/2/19 10:20,1.6,9,1.8,11,1.8,10
2013/2/19 10:21,1.5,10,1.6,10,1.5,12
2013/2/19 10:22,1.4,10,1.5,10,1.6,10
2013/2/19 10:23,1.4,10,1.4,10,3.8,9
2013/2/19 10:24,1.3,10,1.4,10,2.2,10
2013/2/19 10:25,1.2,10,1.3,10,2.4,10
2013/2/19 10:26,1.1,10,1.2,10,1.4,9
2013/2/19 10:27,1,10,1.1,10,1.1,8
2013/2/19 10:28,0.9,10,0.9,9,0.5,8
2013/2/19 10:29,0.9,10,0.9,9,1.9,12
2013/2/19 10:30,0.9,11,0.9,9,2.6,14
2013/2/19 10:31,1,11,1,10,4.7,16
2013/2/19 10:32,1.2,11,1.2,10,3.2,16
2013/2/19 10:33,1.2,13,1.2,10,3.5,3
2013/2/19 10:34,1.5,14,1.5,14,6.3,3
2013/2/19 10:35,1.6,16,1.6,14,4.2,3
2013/2/19 10:36,1.9,16,1.9,16,4.5,1
2013/2/19 10:37,2.1,16,2.1,16,4.9,2
2013/2/19 10:38,2.3,1,2.3,1,3,16
2013/2/19 10:39,2.4,1,2.4,1,3.9,5
2013/2/19 10:40,2.6,2,2.6,2,4.8,5
2013/2/19 10:41,2.6,3,2.6,2,2.9,6
2013/2/19 10:42,2.5,3,2.6,2,2.2,4
2013/2/19 10:43,2.6,3,2.6,2,5.2,1
2013/2/19 10:44,2.3,3,2.6,2,2.2,13
2013/2/19 10:45,2.4,2,2.4,2,5.8,2
2013/2/19 10:46,2.4,3,2.4,2,5.5,3
2013/2/19 10:47,2.3,3,2.4,2,4.3,16
2013/2/19 10:48,2.3,3,2.3,2,4.3,16
2013/2/19 10:49,2.4,2,2.4,2,6.1,1
2013/2/19 10:50,2.5,2,2.5,2,7.2,16
2013/2/19 10:51,2.8,1,2.8,1,6.4,1
2013/2/19 10:52,2.8,1,2.8,1,3.6,15
2013/2/19 10:53,2.9,1,2.9,1,4.7,1
2013/2/19 10:54,2.9,1,2.9,1,5,16
2013/2/19 10:55,3,1,3,1,6,1
2013/2/19 10:56,3.2,16,3.2,1,9.3,1
2013/2/19 10:57,3.5,1,3.5,1,6.7,1
2013/2/19 10:58,3.5,1,3.5,1,3.2,3
2013/2/19 10:59,3.4,1,3.5,1,3.7,3
2013/2/19 11:00,3.2,1,3.4,1,6,1
2013/2/19 11:01,3,1,3.2,1,5,16
2013/2/19 11:02,2.9,1,2.9,1,4.1,15
2013/2/19 11:03,3,1,3,1,4.9,2
2013/2/19 11:04,3,1,3,1,4.1,15
2013/2/19 11:05,3,1,3,1,7.2,16